Regional Weather Roundup
Issued by NWS

Home | Current Version | Previous Version | Graphics & Text | Print | Product List | Glossary On
Versions: 1 2 3 4 5 6 7 8 9 10 11 12 13 14 15 16 17 18 19 20 21 22 23 24 25 26 27 28 29 30 31 32 33 34 35 36 37 38 39 40 41 42 43 44 45 46 47 48 49 50
000
ASUS43 KMPX 221701
RWRMN
WEATHER ROUNDUP FOR MINNESOTA
NATIONAL WEATHER SERVICE TWIN CITIES/CHANHASSEN MN
1100 AM CST WED NOV 22 2017


NOTE: "FAIR" INDICATES FEW OR NO CLOUDS BELOW 12,000 FEET WITH NO
SIGNIFICANT WEATHER AND/OR OBSTRUCTIONS TO VISIBILITY. N/A MEANS
CURRENT SKY AND/OR WEATHER CONDITIONS ARE NOT AVAILABLE.

MNZ060>063-068>070-221800-
   Twin Cities Metro

CITY           SKY/WX    TMP DP  RH WIND       PRES   REMARKS
TWIN CITIES    CLOUDY    23  13  65 S9        30.27F WCI  13
ST PAUL        MOSUNNY   23  12  62 S8        30.30F WCI  14
CRYSTAL        MOSUNNY   22  10  60 S9        30.26F WCI  12
BLAINE         PTSUNNY   25  12  58 S10       30.26F WCI  15
LAKEVILLE      MOSUNNY   21  16  79 S6        30.27F WCI  14
EDEN PRAIRIE   CLOUDY    23  12  62 SW9       30.26F WCI  13
SOUTH ST PAUL  CLOUDY    24  13  64 S8        30.28F WCI  14
LAKE ELMO      FAIR      23  14  68 S9        30.28F WCI  13
$$
MNZ001>005-007-008-013>017-022>024-027-028-221800-
   Northwest Minnesota

CITY           SKY/WX    TMP DP  RH WIND       PRES   REMARKS
BEMIDJI        LGT SNOW  15  12  87 S6        30.09F VSB 1   WCI   6
HALLOCK        LGT SNOW  18  14  86 S18       30.02F WCI   2
ROSEAU         LGT SNOW  16  12  86 SW12      30.05S WCI   3
WARROAD        LGT SNOW  16  10  79 SW10G17   30.05F WCI   3
THIEF RVR FALL LGT SNOW  16  12  86 S16       30.06F FOG     WCI   0
CROOKSTON      FLURRIES  19  14  79 S14       30.06F WCI   6
FOSSTON        LGT SNOW  16  10  79 S15G21    30.08F WCI   1
DETROIT LAKES  LGT SNOW  21  14  73 S14       30.09F WCI   8
MOORHEAD       CLOUDY    21  10  63 S16G22    30.09F WCI   7
PARK RAPIDS    LGT SNOW  16  12  84 S12       30.10F VSB 3/4 WCI   3
MAHNOMEN       CLOUDY    19  13  77 S14G23    30.08F WCI   5
$$
MNZ006-009>011-018-025>026-221800-
   North Central Minnesota

CITY           SKY/WX    TMP DP  RH WIND       PRES   REMARKS
BAUDETTE       LGT SNOW  14   9  80 S9        30.06F WCI   2
FLAG ISLAND    CLOUDY    16  10  79 S10       30.03F WCI   3
INTL FALLS       N/A     14  10  84 S8        30.10F WCI   3
WASKISH        LGT SNOW  16  10  79 S7        30.08F WCI   6
BIG FORK       CLOUDY    18  12  79 S9G17     30.11F WCI   6
LONGVILLE      CLOUDY    18  12  79 S8        30.14S WCI   7
GRAND RAPIDS   CLOUDY    17  15  92 S7        30.16F WCI   8
CRANE LAKE     CLOUDY    12   9  85 S5        30.16F WCI   4
ORR            CLOUDY    14  10  85 S6        30.10F WCI   5
COOK           CLOUDY    18  12  79 S8        30.14S WCI   7
WALKER         CLOUDY    16  10  79 S7        30.11F WCI   6
$$
MNZ012-019>021-037-221800-
   Northeast Minnesota

CITY           SKY/WX    TMP DP  RH WIND       PRES   REMARKS
DULUTH         CLOUDY    16  11  80 SW10      30.15F WCI   4
ELY            CLOUDY    16   9  73 S5        30.13F WCI   9
HIBBING        CLOUDY    15  11  83 S9        30.14F WCI   3
EVELETH        CLOUDY    18  10  73 SW9       30.15F WCI   6
DULUTH HARBOR  CLOUDY    21  14  73 SW13      30.23F WCI   9
TWO HARBORS    CLOUDY    21  12  68 SW9       30.17F WCI  11
SILVER BAY     CLOUDY    19  10  68 SW5       30.17F WCI  13
GRAND MARAIS     N/A     23  16  74 SW10      30.18F WCI  12
G MARAIS ARPRT CLOUDY    16   7  67 CALM      30.09F
$$
MNZ029>031-032-039>041-046>048-054>057-064-221800-
   West Central Minnesota

CITY           SKY/WX    TMP DP  RH WIND       PRES   REMARKS
FERGUS FALLS   MOSUNNY   21  12  68 S14       30.16S WCI   8
WHEATON        CLOUDY    23  12  63 SE13G21   30.13F WCI  11
MORRIS         CLOUDY    23  12  63 S16       30.14F WCI  10
ALEXANDRIA     CLOUDY    20  12  71 S15       30.13F WCI   6
ELBOW LAKE     PTSUNNY   22  13  68 S20       30.12F HAZE    WCI   6
WADENA         CLOUDY    18  10  73 S13       30.12F WCI   4
GLENWOOD       CLOUDY    19  12  73 S16       30.15F WCI   5
APPLETON       CLOUDY    25  10  54 S14       30.17F WCI  13
BENSON         MOSUNNY   23  12  63 S13G18    30.18F WCI  11
ORTONVILLE     CLOUDY    23  12  63 MISG      30.14F
MADISON        MOSUNNY   28  18  64 S14       30.15F WCI  17
WILLMAR        FAIR      23  16  74 S6        30.22F WCI  16
$$
MNZ033>034-036-042>043-049>051-058-059-221800-
   Central Minnesota

CITY           SKY/WX    TMP DP  RH WIND       PRES   REMARKS
ST CLOUD       CLOUDY    20  12  71 S16       30.22F WCI   6
SAUK CENTRE    FAIR      19  12  75 S10       30.18F WCI   7
PAYNESVILLE    CLOUDY    20  15  78 S13       30.21F WCI   8
AITKIN         CLOUDY    18  10  73 S10       30.15F WCI   6
PINE RIVER     CLOUDY    16  10  79 S8        30.17F WCI   5
BRAINERD       CLOUDY    19  13  77 S10       30.17F WCI   7
STAPLES        CLOUDY    18  10  73 S12       30.15F WCI   5
LITTLE FALLS   CLOUDY    19   9  63 S10G17    30.19F WCI   8
LITCHFIELD     CLOUDY    21  16  79 S5        30.23F WCI  15
BUFFALO        CLOUDY    21  12  68 S8        30.26F WCI  11
MAPLE LAKE     CLOUDY    22  15  75 S6        30.26F WCI  14
HUTCHINSON     MOSUNNY   22  13  69 S9        30.25F WCI  12
$$
MNZ037-044-045-052-053-221800-
   East Central Minnesota

CITY           SKY/WX    TMP DP  RH WIND       PRES   REMARKS
PRINCETON      MOSUNNY   21  14  73 S9        30.23F WCI  11
MORA           CLOUDY    19  14  79 SW9       30.25F WCI   9
CAMBRIDGE      MOSUNNY   23  12  63 S9        30.25F WCI  13
RUSH CITY      CLOUDY    19  14  79 S9        30.24F WCI   9
MOOSE LAKE     CLOUDY    21  12  68 S10       30.18F WCI  10
HINCKLEY       FAIR      21  16  79 S8        30.23F WCI  12
CLOQUET        CLOUDY    18  10  73 S9        30.17F WCI   6
MCGREGOR       CLOUDY    21  16  79 SW9       30.17F WCI  11
$$
MNZ071>073-080-081-089-090-097-098-221800-
   Southwest Minnesota

CITY           SKY/WX    TMP DP  RH WIND       PRES   REMARKS
MONTEVIDEO     MOSUNNY   25  12  58 SW13G20   30.18F WCI  13
GRANITE FALLS  CLOUDY    26  14  61 S14       30.22F WCI  14
CANBY          MOSUNNY   28  13  54 SW15G23   30.15F WCI  16
MARSHALL       CLOUDY    26  12  55 S20       30.18F WCI  12
REDWOOD FALLS  CLOUDY    25  10  53 S16       30.23F WCI  12
OLIVIA         CLOUDY    23  14  68 S13       30.22F WCI  11
PIPESTONE      CLOUDY    25  10  54 SW20      30.16F WCI  11
WINDOM         MOSUNNY   25   9  50 S15       30.23S WCI  12
WORTHINGTON    MOSUNNY   25  12  58 S17       30.22F WCI  12
JACKSON        SUNNY     27  12  54 SW15      30.25S WCI  15
SLAYTON        CLOUDY    24   8  50 S17       30.21F WCI  10
$$
MNZ065>067-074>077-082>085-091>093-221800-
   South Central Minnesota

CITY           SKY/WX    TMP DP  RH WIND       PRES   REMARKS
MANKATO        CLOUDY    22  13  68 S12       30.27F WCI  10
NEW ULM        MOSUNNY   23  10  58 CALM      30.25F
ST JAMES       MOSUNNY   25  12  58 S14       30.27F WCI  13
FAIRMONT       SUNNY     25  13  60 S14       30.26F WCI  13
GLENCOE        PTSUNNY   23  15  71 S12       30.25F WCI  11
FARIBAULT      SUNNY     23  14  68 S9        30.27F WCI  13
OWATONNA       CLOUDY    25  16  68 S12       30.27F WCI  14
WASECA         CLOUDY    23  16  74 S14       30.29F WCI  11
ALBERT LEA     CLOUDY    25  12  58 SW8       30.28F WCI  16
$$
MNZ078>079-086>088-094>096-221800-
   Southeast Minnesota

CITY           SKY/WX    TMP DP  RH WIND       PRES   REMARKS
ROCHESTER      CLOUDY    23  14  68 S9        30.28F WCI  13
RED WING       MOSUNNY   25   9  50 SW7       30.30F WCI  17
STANTON        CLOUDY    25  15  67 S7        30.27F WCI  17
DODGE CENTER   SUNNY     23  16  74 SW10      30.27F WCI  12
WINONA           N/A     27  14  59 SW6       30.34F WCI  20
PRESTON        SUNNY     23  12  63 S8        30.30S WCI  14
$$
ABBREVIATIONS USED IN REMARKS
   TC - TEMPERATURES IN CELSIUS
  WCI - WIND CHILL INDEX
   HX - HEAT INDEX
  VSB - VISIBILITY
$$




USA.gov is the U.S. government's official web portal to all federal, state and local government web resources and services.